Tracking 29489 objects as of 9-Sep-2024
HD Live streaming from Space Station
objects crossing your sky now

FENGYUN 1C DEB

Track FENGYUN 1C DEB now!
10-day predictions


NORAD ID: 37421
Int'l Code: 1999-025EGP
Perigee: 810.3 km
Apogee: 1,424.4 km
Inclination: 98.8 °
Period: 107.5 minutes
Semi major axis: 7488 km
RCS: 0.0016 m2 (small)
Launch date: May 10, 1999
Source: People's Republic of China (PRC)
Launch site: Taiyaun Space Center, China (TSC)

Note: This is SATELLITE DEBRIS
Your satellite tracking list
Your tracking list is empty




NASA's NSSDC Master Catalog

Two Line Element Set (TLE):
1 37421U 99025EGP 24252.46264662  .00000970  00000-0  11338-2 0  9997
2 37421  98.8436 257.4454 0410024 162.7034 198.8553 13.39758670547804
Source of the keplerian elements: AFSPC